Home   Weather   Toccoa   Past weeks

Flag for USA Past Weather in Toccoa, Georgia, USA — Yesterday and Last 2 Weeks

Now
59 °F

Clear.


Feels Like: 57 °F
Forecast: 43 / 68 °F
Wind: 12 mph from West

Location: Clemson-Oconee County Airport

Current Time: Jan 24, 2017 at 8:46:49 pm

Latest Report: Jan 24, 2017 at 7:54 pm


Visibility: 10 mi

Pressure: 29.80 "Hg

Humidity: 36%

Dew Point: 32 °F

Location of ToccoaLocation

Past Weather in Toccoa — Graph

°F

Toccoa Temperature Yesterday

Maximum temperature yesterday: 66 °F (at 2:54 pm)
Minimum temperature yesterday: 48 °F (at 6:54 am)
Average temperature yesterday: 55 °F

High & Low Weather Summary for the Past Weeks

 TemperatureHumidityPressure
High79 °F (Jan 13, 2:54 pm)93% (Jan 14, 10:15 pm)30.63 "Hg (Jan 14, 10:15 pm)
Low28 °F (Jan 10, 5:54 am)23% (Jan 18, 4:54 pm)29.19 "Hg (Jan 22, 8:54 pm)
Average57 °F73%30.04 "Hg
* Reported Jan 9 6:54 pm — Jan 24 6:54 pm, Toccoa, Weather by CustomWeather, © 2017

Note: Actual official high and low records may vary slightly from our data, if they occured in-between our weather recording intervals... More about our weather records

Advertising

Toccoa Weather History for the Previous 24 Hours

Scroll right to see more
 ConditionsComfort  
Time TempWeatherWind HumidityBarometerVisibility
6:54 pm
Tue, Jan 24
61 °FClear.6 mph34%29.79 "Hg10 mi
5:54 pm64 °FClear.5 mph30%29.77 "Hg10 mi
4:54 pm67 °FSunny.7 mph29%29.74 "Hg10 mi
3:54 pm67 °FSunny.7 mph32%29.72 "Hg10 mi
2:54 pm70 °FSunny.8 mph28%29.71 "Hg10 mi
1:54 pm67 °FSunny.7 mph27%29.71 "Hg10 mi
12:54 pm66 °FSunny.N/A31%29.72 "Hg10 mi
11:54 am64 °FSunny.7 mph33%29.74 "Hg10 mi
10:54 am58 °FSunny.5 mph46%29.76 "Hg10 mi
9:54 am55 °FSunny.7 mph53%29.75 "Hg10 mi
8:54 am53 °FSunny.3 mph55%29.71 "Hg10 mi
7:54 am50 °FSunny.12 mph59%29.68 "Hg10 mi
6:54 am47 °FClear.13 mph71%29.67 "Hg10 mi
5:54 am47 °FClear.13 mph71%29.64 "Hg10 mi
4:54 am48 °FClear.5 mph71%29.60 "Hg10 mi
3:54 am49 °FClear.7 mph69%29.61 "Hg10 mi
2:54 am48 °FClear.3 mph74%29.60 "Hg10 mi
1:54 am53 °FClear.13 mph56%29.59 "Hg10 mi
12:54 am54 °FClear.10 mph57%29.58 "Hg10 mi
11:54 pm
Mon, Jan 23
52 °FClear.8 mph66%29.57 "Hg10 mi
10:54 pm55 °FClear.13 mph62%29.56 "Hg10 mi
9:54 pm56 °FPassing clouds.12 mph62%29.54 "Hg10 mi
8:54 pm57 °FPassing clouds.9 mph62%29.50 "Hg10 mi
Weather by CustomWeather, © 2017

See weather overviewHow to use our weather pages